Regional Weather Roundup
Issued by NWS

Home | Current Version | Previous Version | Graphics & Text | Print | Product List | Glossary On
Versions: 1 2 3 4 5 6 7 8 9 10 11 12 13 14 15 16 17 18 19 20 21 22 23 24 25 26 27 28 29 30 31 32 33 34 35 36 37 38 39 40 41 42 43 44 45 46 47 48 49 50
000
ASUS43 KDMX 251506
RWRIA

WEATHER ROUNDUP FOR IOWA
NATIONAL WEATHER SERVICE DES MOINES IA
900 AM CST SAT FEB 25 2017

NOTE: "FAIR" INDICATES FEW OR NO CLOUDS BELOW 12,000 FEET WITH NO
SIGNIFICANT WEATHER AND/OR OBSTRUCTIONS TO VISIBILITY.

* - THESE STATIONS ARE NOT NWS STATIONS...THUS NOT UNDER NWS
QUALITY CONTROL.  THEY ALSO DO NOT REPORT WEATHER SUCH
AS PRECIPITATION OR FOG.

IAZ001>003-012>014-020>022-031>034-043>046-251600-
   NORTHWEST IOWA

CITY           SKY/WX    TMP DP  RH WIND       PRES   REMARKS
CARROLL *      SUNNY     21  14  73 NW12      30.07S WCI   9
CHEROKEE *     SUNNY     15  11  87 CALM      30.06F
DENISON *      SUNNY     18  12  79 VRB3      30.07S
LE MARS *      PTSUNNY   16  12  86 SW3       30.09S
SHELDON *      SUNNY     16  16 100 W9        30.03S WCI   4
SIOUX CITY     CLOUDY    17  11  77 W8        30.11R WCI   7
SPENCER        SUNNY     15  10  80 W9        30.04R WCI   3
STORM LAKE *   SUNNY     12   9  85 W10       30.05R WCI  -1
$$

IAZ055>058-069>071-079>083-090>094-251600-
   SOUTHWEST IOWA

CITY           SKY/WX    TMP DP  RH WIND       PRES   REMARKS
ATLANTIC *     SUNNY     19  14  79 VRB5      30.10R WCI  13
AUDUBON *      SUNNY     19  12  73 NW10      30.07S WCI   8
CLARINDA *     SUNNY     21  16  79 NW6       30.17R WCI  14
COUNCIL BLFS * CLOUDY    19  16  86 NW3       30.13R
CRESTON *      FLURRIES  19  12  73 NW18      30.09R WCI   4
HARLAN  *      SUNNY     18  16  93 NW6       30.14R WCI   9
LAMONI         SUNNY     20  13  74 NW15      30.07R WCI   6
RED OAK *      SUNNY     21  16  79 NW8       30.14R WCI  12
SHENANDOAH *   SUNNY     23  16  74 VRB3      30.17R
$$

IAZ047>049-059>061-072>074-084-251600-
   CENTRAL IOWA

CITY           SKY/WX    TMP DP  RH WIND       PRES   REMARKS
AMES           SUNNY     18  11  74 NW17      30.04R WCI   3
ANKENY *       SUNNY     19   9  63 NW15G22   30.07R WCI   5
BOONE *        SUNNY     18   9  68 NW17G25   30.03R WCI   2
CHARITON *     SUNNY     19  12  73 NW15G25   30.06R WCI   5
DES MOINES     MOSUNNY   20   9  62 NW17      30.07R WCI   5
GRINNELL*      SUNNY     17  11  76 NW16G24   30.02R WCI   2
KNOXVILLE *    SUNNY     19   9  63 NW20      30.04R WCI   4
MARSHALLTOWN   SUNNY     17   9  70 NW21      30.00R WCI   0
NEWTON *       SUNNY     18   9  68 NW18      30.03R WCI   2
PELLA *        SUNNY     19  11  70 NW16G22   30.06R WCI   4
PERRY *          N/A     20  13  74 NW10      30.07R WCI   8
$$

IAZ004>006-015-016-023>025-035-036-251600-
   NORTH CENTRAL IOWA

CITY           SKY/WX    TMP DP  RH WIND       PRES   REMARKS
ALGONA *       LGT SNOW  16  10  79 NW16      30.01R WCI   0
CLARION *      SUNNY     14   9  79 NW13      30.02R WCI   0
ESTHERVILLE    SUNNY     14   9  80 NW15      30.01S WCI  -1
FORT DODGE *   SUNNY     16   9  73 NW7       30.05R WCI   6
MASON CITY     SUNNY     14   9  80 NW18      29.98R WCI  -3
FOREST CITY *  HAZE      16  10  79 NW16G22   29.98S VSB 3/4 WCI   0
WEBSTER CITY * SUNNY     16   9  73 NW17      30.02R WCI   0
IOWA FALLS *     N/A     17  10  75 NW18      30.01R WCI   0
$$

IAZ007>011-017>019-026>030-037>042-050>054-066-251600-
   NORTHEAST IOWA

CITY           SKY/WX    TMP DP  RH WIND       PRES   REMARKS
CEDAR RAPIDS   MOSUNNY   18  13  80 NW20      29.96R WCI   2
CHARLES CITY * SUNNY     16   7  67 NW21G26   29.96R WCI  -2
CLINTON *      SUNNY     20  12  71 NW22      29.92R WCI   3
DECORAH *      SUNNY     16   7  67 NW20      29.89R WCI  -1
DUBUQUE        SUNNY     16   8  71 NW18      29.88R WCI   0
MONTICELLO *   PTSUNNY   19  10  68 NW20G30   29.93R WCI   4
OELWEIN *      MOSUNNY   18  12  79 NW23      29.93R WCI   0
WATERLOO       SUNNY     17   9  70 NW16G24   29.97R WCI   2
$$

IAZ064-065-067-068-078-251600-
   EAST CENTRAL IOWA

CITY           SKY/WX    TMP DP  RH WIND       PRES   REMARKS
DAVENPORT      SUNNY     20  11  68 NW22G29   29.94R WCI   3
IOWA CITY      MOSUNNY   20  11  68 NW16G24   30.00R WCI   6
MUSCATINE *    CLOUDY    21  14  73 NW17G23   30.00R WCI   7
QUAD CITIES    MOSUNNY   22  11  62 NW26G35   29.95R WCI   5
$$

IAZ062-063-075>077-085>089-095>099-251600-
   SOUTHEAST IOWA

CITY           SKY/WX    TMP DP  RH WIND       PRES   REMARKS
BURLINGTON     PTSUNNY   21  14  74 NW15      30.00R WCI   8
FAIRFIELD *    CLOUDY    19  10  68 NW17      30.02R WCI   4
KEOKUK *       PTSUNNY   23  14  68 W17G25    30.02S WCI   9
CENTERVILLE *    N/A     21  14  73 W15       30.07R WCI   8
OTTUMWA        SUNNY     20  10  65 NW17G24   30.04R WCI   5
WASHINGTON *   CLOUDY    19  14  79 NW20G25   30.02R WCI   4
$$

ABBREVIATIONS USED IN REMARKS
   TC - TEMPERATURES IN CELSIUS
  WCI - WIND CHILL INDEX
   HX - HEAT INDEX
  VSB - VISIBILITY
$$





USA.gov is the U.S. government's official web portal to all federal, state and local government web resources and services.